Change the Weather History Date:

Wednesday, December 25, 2013

  Actual Average Record
Temperature  
Mean Temperature 35 °F -  
Max Temperature 46 °F 44 °F 73 °F (1955)
Min Temperature 24 °F 23 °F 7 °F (1990)
Degree Days  
Heating Degree Days 30    
Moisture  
Dew Point 28 °F    
Average Humidity 79    
Maximum Humidity 100    
Minimum Humidity 50    
Precipitation  
Precipitation 0.00 in - - ()
Sea Level Pressure  
Sea Level Pressure 30.37 in    
Wind  
Wind Speed 7 mph (NW)    
Max Wind Speed 14 mph    
Max Gust Speed -    
Visibility 9 miles    
Events      
Averages and records for this station are not official NWS values.
T = Trace of Precipitation, MM = Missing Value Source: NWS Daily Summary

Daily Weather History Graph

Daily Weather History Graph

Search for Another Location

Airport or City:

Trip Planner

Search our weather history database for the weather conditions in past years. The results will help you decide how hot, cold, wet, or windy it might be!

Date:

Astronomy

Dec. 25, 2013 Rise Set
Actual Time 7:45 AM CST 5:24 PM CST
Civil Twilight 7:16 AM CST 5:53 PM CST
Nautical Twilight 6:44 AM CST 6:25 PM CST
Astronomical Twilight 6:12 AM CST 6:57 PM CST
Moon 12:23 AM CST (12/25) 12:21 PM CST (12/25)
Length of Visible Light 10h 36m
Length of Day
9h 39m
Waning Gibbous, 48% of the Moon is Illuminated
Dec 25
Waning Gibbous
Jan 1
New
Jan 7
First Quarter
Jan 15
Full
Jan 23
Last Quarter

Hourly Weather History & Observations

Time (CST) Temp. Windchill Dew Point Humidity Pressure Visibility Wind Dir Wind Speed Gust Speed Precip Events Conditions
12:10 AM 28.4 °F 20.4 °F 28.4 °F 100% 30.27 in 5.0 mi NNW 8.1 mph - N/A   Scattered Clouds
12:30 AM 28.4 °F 21.2 °F 26.6 °F 93% 30.28 in 5.0 mi NW 6.9 mph - N/A   Mostly Cloudy
12:50 AM 30.2 °F 24.3 °F 28.4 °F 93% 30.27 in 6.0 mi NNW 5.8 mph - N/A   Mostly Cloudy
1:10 AM 32.0 °F 25.6 °F 28.4 °F 87% 30.27 in 7.0 mi NNW 6.9 mph - N/A   Partly Cloudy
1:30 AM 30.2 °F 22.6 °F 28.4 °F 93% 30.27 in 7.0 mi NNW 8.1 mph - N/A   Clear
1:50 AM 32.0 °F 24.8 °F 28.4 °F 87% 30.27 in 7.0 mi NNW 8.1 mph - N/A   Clear
2:10 AM 30.2 °F 23.4 °F 28.4 °F 93% 30.27 in 7.0 mi NNW 6.9 mph - N/A   Clear
2:30 AM 30.2 °F 21.9 °F 26.6 °F 86% 30.28 in 7.0 mi NNW 9.2 mph - N/A   Clear
2:50 AM 30.2 °F 21.3 °F 26.6 °F 86% 30.29 in 7.0 mi NNW 10.4 mph - N/A   Clear
3:10 AM 30.2 °F 22.6 °F 26.6 °F 86% 30.29 in 6.0 mi NNW 8.1 mph - N/A   Partly Cloudy
3:30 AM 28.4 °F 21.2 °F 26.6 °F 93% 30.29 in 7.0 mi NNW 6.9 mph - N/A   Partly Cloudy
3:50 AM 30.2 °F 23.4 °F 26.6 °F 86% 30.29 in 7.0 mi NNW 6.9 mph - N/A   Clear
4:10 AM 30.2 °F 22.6 °F 26.6 °F 86% 30.30 in 7.0 mi NNW 8.1 mph - N/A   Mostly Cloudy
4:30 AM 32.0 °F 24.8 °F 28.4 °F 87% 30.30 in 8.0 mi North 8.1 mph - N/A   Overcast
4:50 AM 32.0 °F 24.8 °F 28.4 °F 87% 30.30 in 8.0 mi North 8.1 mph - N/A   Overcast
5:10 AM 32.0 °F 25.6 °F 28.4 °F 87% 30.31 in 8.0 mi North 6.9 mph - N/A   Overcast
5:30 AM 32.0 °F 25.6 °F 28.4 °F 87% 30.32 in 8.0 mi North 6.9 mph - N/A   Overcast
5:50 AM 32.0 °F 25.6 °F 28.4 °F 87% 30.33 in 9.0 mi North 6.9 mph - N/A   Mostly Cloudy
6:10 AM 32.0 °F 26.4 °F 28.4 °F 87% 30.34 in 9.0 mi North 5.8 mph - N/A   Scattered Clouds
6:30 AM 30.2 °F 23.4 °F 26.6 °F 86% 30.34 in 9.0 mi NNE 6.9 mph - N/A   Clear
6:50 AM 30.2 °F 24.3 °F 26.6 °F 86% 30.35 in 10.0 mi NE 5.8 mph - N/A   Clear
7:10 AM 26.6 °F - 24.8 °F 93% 30.37 in 7.0 mi Calm Calm - N/A   Clear
7:30 AM 26.6 °F - 26.6 °F 100% 30.37 in 5.0 mi Calm Calm - N/A   Clear
7:50 AM 26.6 °F 22.6 °F 24.8 °F 93% 30.38 in 3.0 mi West 3.5 mph - N/A   Partly Cloudy
8:10 AM 24.8 °F 19.1 °F 23.0 °F 93% 30.39 in 2.5 mi West 4.6 mph - N/A   Clear
8:30 AM 24.8 °F 16.9 °F 24.8 °F 100% 30.39 in 3.0 mi WSW 6.9 mph - N/A   Clear
8:50 AM 24.8 °F 16.9 °F 24.8 °F 100% 30.40 in 5.0 mi West 6.9 mph - N/A   Clear
9:10 AM 26.6 °F 21.2 °F 24.8 °F 93% 30.41 in 6.0 mi West 4.6 mph - N/A   Clear
9:30 AM 28.4 °F 21.2 °F 26.6 °F 93% 30.41 in 8.0 mi WNW 6.9 mph - N/A   Clear
9:50 AM 32.0 °F 24.2 °F 28.4 °F 87% 30.43 in 9.0 mi NW 9.2 mph - N/A   Clear
10:10 AM 33.8 °F 26.4 °F 30.2 °F 87% 30.43 in 10.0 mi NNW 9.2 mph - N/A   Clear
10:30 AM 35.6 °F 29.2 °F 30.2 °F 81% 30.43 in 10.0 mi NW 8.1 mph - N/A   Clear
10:50 AM 35.6 °F 29.2 °F 30.2 °F 81% 30.43 in 10.0 mi NW 8.1 mph - N/A   Clear
11:10 AM 37.4 °F 32.1 °F 30.2 °F 75% 30.43 in 10.0 mi NW 6.9 mph - N/A   Clear
11:30 AM 37.4 °F 30.3 °F 30.2 °F 75% 30.43 in 10.0 mi NW 10.4 mph - N/A   Clear
11:50 AM 39.2 °F 32.5 °F 32.0 °F 75% 30.42 in 10.0 mi NW 10.4 mph - N/A   Clear
12:10 PM 39.2 °F 32.5 °F 30.2 °F 70% 30.41 in 10.0 mi NW 10.4 mph - N/A   Clear
12:30 PM 41.0 °F 34.7 °F 30.2 °F 65% 30.40 in 10.0 mi NNW 10.4 mph - N/A   Clear
12:50 PM 42.8 °F 38.6 °F 30.2 °F 61% 30.39 in 10.0 mi WNW 6.9 mph - N/A   Clear
1:10 PM 44.6 °F 40.7 °F 30.2 °F 57% 30.37 in 10.0 mi WNW 6.9 mph - N/A   Clear
1:30 PM 44.6 °F 39.7 °F 32.0 °F 61% 30.37 in 10.0 mi NW 9.2 mph - N/A   Clear
1:50 PM 46.4 °F 40.7 °F 32.0 °F 57% 30.37 in 10.0 mi NW 12.7 mph - N/A   Clear
2:10 PM 46.4 °F 41.5 °F 32.0 °F 57% 30.37 in 10.0 mi NW 10.4 mph - N/A   Clear
2:30 PM 46.4 °F 40.4 °F 32.0 °F 57% 30.37 in 10.0 mi NW 13.8 mph - N/A   Clear
2:50 PM 46.4 °F 40.7 °F 32.0 °F 57% 30.36 in 10.0 mi NW 12.7 mph - N/A   Clear
3:10 PM 46.4 °F 40.4 °F 32.0 °F 57% 30.37 in 10.0 mi NW 13.8 mph - N/A   Clear
3:30 PM 46.4 °F 40.7 °F 32.0 °F 57% 30.37 in 10.0 mi NW 12.7 mph - N/A   Clear
3:50 PM 46.4 °F 41.9 °F 32.0 °F 57% 30.37 in 10.0 mi NW 9.2 mph - N/A   Clear
4:10 PM 46.4 °F 40.7 °F 28.4 °F 50% 30.37 in 10.0 mi NNW 12.7 mph - N/A   Clear
4:30 PM 46.4 °F 42.9 °F 28.4 °F 50% 30.37 in 10.0 mi NNW 6.9 mph - N/A   Clear
4:50 PM 44.6 °F 40.7 °F 28.4 °F 53% 30.37 in 10.0 mi NNW 6.9 mph - N/A   Clear
5:10 PM 42.8 °F 41.1 °F 26.6 °F 53% 30.37 in 10.0 mi NNW 3.5 mph - N/A   Clear
5:30 PM 41.0 °F 38.0 °F 26.6 °F 57% 30.38 in 10.0 mi NW 4.6 mph - N/A   Clear
5:50 PM 39.2 °F 34.2 °F 26.6 °F 61% 30.38 in 10.0 mi NW 6.9 mph - N/A   Scattered Clouds
6:10 PM 35.6 °F 31.7 °F 26.6 °F 70% 30.39 in 10.0 mi NNW 4.6 mph - N/A   Mostly Cloudy
6:30 PM 37.4 °F 34.9 °F 26.6 °F 65% 30.39 in 10.0 mi NW 3.5 mph - N/A   Mostly Cloudy
6:50 PM 37.4 °F 34.9 °F 26.6 °F 65% 30.39 in 10.0 mi NW 3.5 mph - N/A   Mostly Cloudy
7:10 PM 33.8 °F 29.6 °F 26.6 °F 75% 30.40 in 10.0 mi NW 4.6 mph - N/A   Mostly Cloudy
7:30 PM 33.8 °F 30.8 °F 26.6 °F 75% 30.40 in 10.0 mi NW 3.5 mph - N/A   Mostly Cloudy
7:50 PM 32.0 °F 26.4 °F 26.6 °F 80% 30.40 in 10.0 mi NNW 5.8 mph - N/A   Overcast
8:10 PM 33.8 °F 29.6 °F 26.6 °F 75% 30.40 in 10.0 mi NW 4.6 mph - N/A   Mostly Cloudy
8:30 PM 33.8 °F 29.6 °F 26.6 °F 75% 30.41 in 10.0 mi NW 4.6 mph - N/A   Mostly Cloudy
8:50 PM 32.0 °F 26.4 °F 26.6 °F 80% 30.41 in 10.0 mi NW 5.8 mph - N/A   Mostly Cloudy
9:10 PM 32.0 °F 26.4 °F 26.6 °F 80% 30.41 in 10.0 mi WNW 5.8 mph - N/A   Mostly Cloudy
9:30 PM 30.2 °F 26.7 °F 26.6 °F 86% 30.41 in 10.0 mi WNW 3.5 mph - N/A   Mostly Cloudy
9:50 PM 32.0 °F 28.7 °F 26.6 °F 80% 30.41 in 10.0 mi West 3.5 mph - N/A   Mostly Cloudy
10:10 PM 30.2 °F 26.7 °F 26.6 °F 86% 30.41 in 10.0 mi WSW 3.5 mph - N/A   Overcast
10:30 PM 30.2 °F 25.4 °F 26.6 °F 86% 30.41 in 10.0 mi West 4.6 mph - N/A   Overcast
10:50 PM 30.2 °F 24.3 °F 26.6 °F 86% 30.41 in 10.0 mi West 5.8 mph - N/A   Mostly Cloudy
11:10 PM 30.2 °F 25.4 °F 26.6 °F 86% 30.42 in 10.0 mi West 4.6 mph - N/A   Mostly Cloudy
11:30 PM 28.4 °F 22.2 °F 26.6 °F 93% 30.41 in 10.0 mi WSW 5.8 mph - N/A   Mostly Cloudy
11:50 PM 28.4 °F 21.2 °F 24.8 °F 86% 30.40 in 10.0 mi WSW 6.9 mph - N/A   Mostly Cloudy